Starlink 34649

operational
NORAD ID: 64798 Int'l Des: 2025-150 Owner: SPXS Country: US Constellation: starlink
LEOCIRCULAR

关于 Starlink 34649

正在加载描述...

实时位置

正在加载3D地球...

即将过境

高度历史

Altitude vs Time

uPlot chart will show altitude changes over time

两行轨道根数

1 64798U 25150J 25340.81518240 .00112137 00000-0 25277-2 0 9990
2 64798 70.0014 9.8788 0002105 300.6231 59.4743 15.42706840 23465
Epoch: Dec 6, 2025 • Age: 11 hours

当前状态

高度 440.6 km
速度 7.65 km/s
星下点 27.06°N, 155.72°W
发射日期 Jul 16, 2025
运行时间 0.3 years
类型 internet

技术详情

分类 Payload
质量 575.00 kg
干质量 530.00 kg
总质量 575.00 kg
长度 0.30 m
直径 4.10 m
跨度 29.00 m
形状 Box + pan
制造商 SPXS
平台类型 Starlink V2MO
阶段状态 In Orbit
所有者/国家 SPXS/US

大型星座

Loading constellations...